Time,TemperatureF,DewpointF,PressureIn,WindDirection,WindDirectionDegrees,WindSpeedMPH,WindSpeedGustMPH,Humidity,HourlyPrecipIn,Conditions,Clouds,dailyrainin,SoftwareType,DateUTC
2013-03-20 00:00:00,21.0,19.0,29.86,NE,49,5.0,6.0,92,0.00,,,0.00,Wunderground v.1.15,2013-03-20 04:00:00,
2013-03-20 00:05:00,21.0,19.0,29.86,ENE,74,6.0,6.0,92,0.00,,,0.00,Wunderground v.1.15,2013-03-20 04:05:00,
2013-03-20 00:15:00,21.1,19.1,29.86,NNE,19,5.0,6.0,92,0.00,,,0.00,Wunderground v.1.15,2013-03-20 04:15:00,
2013-03-20 00:20:00,21.1,19.1,29.85,NE,51,5.0,6.0,92,0.00,,,0.00,Wunderground v.1.15,2013-03-20 04:20:00,
2013-03-20 00:25:00,21.1,19.1,29.85,NE,38,5.0,6.0,92,0.00,,,0.00,Wunderground v.1.15,2013-03-20 04:25:00,
2013-03-20 00:30:00,21.1,19.1,29.85,NE,48,5.0,5.0,92,0.00,,,0.00,Wunderground v.1.15,2013-03-20 04:30:00,
2013-03-20 00:35:00,21.1,19.1,29.85,ENE,69,5.0,5.0,92,0.00,,,0.00,Wunderground v.1.15,2013-03-20 04:35:00,
2013-03-20 00:40:00,21.1,19.1,29.85,NNE,32,5.0,5.0,92,0.00,,,0.00,Wunderground v.1.15,2013-03-20 04:40:00,
2013-03-20 00:45:00,21.2,19.2,29.85,ENE,73,4.0,5.0,92,0.00,,,0.00,Wunderground v.1.15,2013-03-20 04:45:00,
2013-03-20 00:50:00,21.2,19.5,29.85,NE,46,3.0,3.0,93,0.00,,,0.00,Wunderground v.1.15,2013-03-20 04:50:00,
2013-03-20 01:00:00,21.2,19.2,29.85,NNE,24,4.0,4.0,92,0.00,,,0.00,Wunderground v.1.15,2013-03-20 05:00:00,
2013-03-20 01:10:00,21.2,19.2,29.85,NE,50,4.0,4.0,92,0.00,,,0.00,Wunderground v.1.15,2013-03-20 05:10:00,
2013-03-20 01:15:00,21.2,19.2,29.85,East,82,4.0,5.0,92,0.00,,,0.00,Wunderground v.1.15,2013-03-20 05:15:00,
2013-03-20 01:20:00,21.2,19.5,29.85,ENE,60,3.0,3.0,93,0.00,,,0.00,Wunderground v.1.15,2013-03-20 05:20:00,
2013-03-20 01:25:00,21.2,19.5,29.85,NE,50,4.0,4.0,93,0.00,,,0.00,Wunderground v.1.15,2013-03-20 05:25:00,
2013-03-20 01:30:00,21.2,19.5,29.85,ENE,78,3.0,4.0,93,0.00,,,0.00,Wunderground v.1.15,2013-03-20 05:30:00,
2013-03-20 01:40:00,21.3,19.6,29.85,ENE,61,3.0,4.0,93,0.00,,,0.00,Wunderground v.1.15,2013-03-20 05:40:00,
2013-03-20 01:45:00,21.3,19.3,29.85,ENE,61,3.0,4.0,92,0.00,,,0.00,Wunderground v.1.15,2013-03-20 05:45:00,
2013-03-20 01:50:00,21.2,19.2,29.85,ENE,73,3.0,3.0,92,0.00,,,0.00,Wunderground v.1.15,2013-03-20 05:50:00,
2013-03-20 01:55:00,21.2,19.2,29.84,ENE,65,4.0,4.0,92,0.00,,,0.00,Wunderground v.1.15,2013-03-20 05:55:00,
2013-03-20 02:00:00,21.2,19.2,29.84,ENE,63,4.0,4.0,92,0.00,,,0.00,Wunderground v.1.15,2013-03-20 06:00:00,
2013-03-20 02:10:00,21.2,19.2,29.83,NNE,31,4.0,7.0,92,0.00,,,0.00,Wunderground v.1.15,2013-03-20 06:10:00,
2013-03-20 02:15:00,21.2,19.2,29.83,East,84,5.0,7.0,92,0.00,,,0.00,Wunderground v.1.15,2013-03-20 06:15:00,
2013-03-20 02:20:00,21.2,19.2,29.83,ENE,59,4.0,4.0,92,0.00,,,0.00,Wunderground v.1.15,2013-03-20 06:20:00,
2013-03-20 02:25:00,21.2,19.2,29.83,ENE,67,3.0,4.0,92,0.00,,,0.00,Wunderground v.1.15,2013-03-20 06:25:00,
2013-03-20 02:30:00,21.2,19.2,29.83,NE,51,3.0,3.0,92,0.00,,,0.00,Wunderground v.1.15,2013-03-20 06:30:00,
2013-03-20 02:40:00,21.2,19.2,29.83,ENE,70,2.0,2.0,92,0.00,,,0.00,Wunderground v.1.15,2013-03-20 06:40:00,
2013-03-20 02:50:00,21.2,19.2,29.82,NE,52,2.0,2.0,92,0.00,,,0.00,Wunderground v.1.15,2013-03-20 06:50:00,
2013-03-20 02:55:00,21.2,19.2,29.82,ENE,78,2.0,2.0,92,0.00,,,0.00,Wunderground v.1.15,2013-03-20 06:55:00,
2013-03-20 03:00:00,21.1,19.1,29.81,East,81,2.0,2.0,92,0.00,,,0.00,Wunderground v.1.15,2013-03-20 07:00:00,
2013-03-20 03:05:00,21.1,19.1,29.81,East,81,2.0,2.0,92,0.00,,,0.00,Wunderground v.1.15,2013-03-20 07:05:00,
2013-03-20 03:15:00,21.1,19.1,29.81,ENE,75,2.0,2.0,92,0.00,,,0.00,Wunderground v.1.15,2013-03-20 07:15:00,
2013-03-20 03:20:00,21.1,19.1,29.81,East,80,1.0,1.0,92,0.00,,,0.00,Wunderground v.1.15,2013-03-20 07:20:00,
2013-03-20 03:25:00,21.0,19.0,29.80,East,88,1.0,1.0,92,0.00,,,0.00,Wunderground v.1.15,2013-03-20 07:25:00,
2013-03-20 03:30:00,21.0,19.0,29.80,ENE,72,1.0,2.0,92,0.00,,,0.00,Wunderground v.1.15,2013-03-20 07:30:00,
2013-03-20 03:35:00,21.0,19.0,29.80,ENE,72,1.0,2.0,92,0.00,,,0.00,Wunderground v.1.15,2013-03-20 07:35:00,
2013-03-20 03:40:00,21.0,19.0,29.80,ENE,72,1.0,1.0,92,0.00,,,0.00,Wunderground v.1.15,2013-03-20 07:40:00,
2013-03-20 03:45:00,20.9,18.9,29.80,ENE,72,1.0,1.0,92,0.00,,,0.00,Wunderground v.1.15,2013-03-20 07:45:00,
2013-03-20 03:50:00,20.9,18.9,29.80,ENE,72,0.0,0.0,92,0.00,,,0.00,Wunderground v.1.15,2013-03-20 07:50:00,
2013-03-20 03:55:00,20.8,18.8,29.79,ENE,72,0.0,1.0,92,0.00,,,0.00,Wunderground v.1.15,2013-03-20 07:55:00,
2013-03-20 04:00:00,20.8,18.8,29.79,ENE,72,1.0,1.0,92,0.00,,,0.00,Wunderground v.1.15,2013-03-20 08:00:00,
2013-03-20 04:05:00,20.7,18.7,29.79,ENE,73,1.0,2.0,92,0.00,,,0.00,Wunderground v.1.15,2013-03-20 08:05:00,
2013-03-20 04:15:00,20.7,18.7,29.79,ENE,74,1.0,2.0,92,0.00,,,0.00,Wunderground v.1.15,2013-03-20 08:15:00,
2013-03-20 04:20:00,20.6,18.6,29.79,ENE,74,1.0,1.0,92,0.00,,,0.00,Wunderground v.1.15,2013-03-20 08:20:00,
2013-03-20 04:25:00,20.4,18.4,29.79,ENE,74,1.0,2.0,92,0.00,,,0.00,Wunderground v.1.15,2013-03-20 08:25:00,
2013-03-20 04:30:00,20.3,18.3,29.79,ENE,74,1.0,2.0,92,0.00,,,0.00,Wunderground v.1.15,2013-03-20 08:30:00,
2013-03-20 04:35:00,20.4,18.4,29.79,South,186,2.0,2.0,92,0.00,,,0.00,Wunderground v.1.15,2013-03-20 08:35:00,
2013-03-20 04:45:00,20.7,18.7,29.79,SSW,198,1.0,2.0,92,0.00,,,0.00,Wunderground v.1.15,2013-03-20 08:45:00,
2013-03-20 04:50:00,20.7,18.5,29.79,SSW,198,1.0,2.0,91,0.00,,,0.00,Wunderground v.1.15,2013-03-20 08:50:00,
2013-03-20 04:55:00,20.7,18.5,29.79,SSW,198,1.0,2.0,91,0.00,,,0.00,Wunderground v.1.15,2013-03-20 08:55:00,
2013-03-20 05:00:00,20.7,18.5,29.79,SSW,198,2.0,2.0,91,0.00,,,0.00,Wunderground v.1.15,2013-03-20 09:00:00,
2013-03-20 05:05:00,20.7,18.5,29.79,WSW,250,2.0,6.0,91,0.00,,,0.00,Wunderground v.1.15,2013-03-20 09:05:00,
2013-03-20 05:10:00,20.5,18.3,29.79,SSW,213,3.0,3.0,91,0.00,,,0.00,Wunderground v.1.15,2013-03-20 09:10:00,
2013-03-20 05:15:00,20.2,18.0,29.79,SW,225,4.0,4.0,91,0.00,,,0.00,Wunderground v.1.15,2013-03-20 09:15:00,
2013-03-20 05:25:00,20.2,18.2,29.79,SW,236,2.0,3.0,92,0.00,,,0.00,Wunderground v.1.15,2013-03-20 09:25:00,
2013-03-20 05:30:00,20.2,18.2,29.79,WSW,238,1.0,1.0,92,0.00,,,0.00,Wunderground v.1.15,2013-03-20 09:30:00,
2013-03-20 05:35:00,20.6,18.6,29.78,SW,229,1.0,2.0,92,0.00,,,0.00,Wunderground v.1.15,2013-03-20 09:35:00,
2013-03-20 05:40:00,20.7,18.7,29.78,West,275,2.0,3.0,92,0.00,,,0.00,Wunderground v.1.15,2013-03-20 09:40:00,
2013-03-20 05:45:00,21.0,19.0,29.78,SSW,206,2.0,3.0,92,0.00,,,0.00,Wunderground v.1.15,2013-03-20 09:45:00,
2013-03-20 05:55:00,21.6,19.4,29.78,SSW,210,3.0,5.0,91,0.00,,,0.00,Wunderground v.1.15,2013-03-20 09:55:00,
2013-03-20 06:00:00,21.6,19.4,29.78,SSW,211,3.0,3.0,91,0.00,,,0.00,Wunderground v.1.15,2013-03-20 10:00:00,
2013-03-20 06:05:00,21.7,19.5,29.78,NNW,348,4.0,4.0,91,0.00,,,0.00,Wunderground v.1.15,2013-03-20 10:05:00,
2013-03-20 06:10:00,21.5,19.3,29.79,SSW,192,3.0,3.0,91,0.00,,,0.00,Wunderground v.1.15,2013-03-20 10:10:00,
2013-03-20 06:15:00,21.5,19.3,29.78,ESE,105,2.0,3.0,91,0.00,,,0.00,Wunderground v.1.15,2013-03-20 10:15:00,
2013-03-20 06:20:00,21.1,18.9,29.78,SSW,200,1.0,1.0,91,0.00,,,0.00,Wunderground v.1.15,2013-03-20 10:20:00,
2013-03-20 06:25:00,21.2,19.0,29.78,North,349,2.0,2.0,91,0.00,,,0.00,Wunderground v.1.15,2013-03-20 10:25:00,
2013-03-20 06:30:00,21.0,18.8,29.78,NW,326,1.0,1.0,91,0.00,,,0.00,Wunderground v.1.15,2013-03-20 10:30:00,
2013-03-20 06:35:00,20.8,18.6,29.78,NNE,16,1.0,1.0,91,0.00,,,0.00,Wunderground v.1.15,2013-03-20 10:35:00,
2013-03-20 06:40:00,20.9,18.7,29.78,West,281,2.0,2.0,91,0.00,,,0.00,Wunderground v.1.15,2013-03-20 10:40:00,
2013-03-20 06:45:00,21.2,19.2,29.78,West,263,3.0,4.0,92,0.00,,,0.00,Wunderground v.1.15,2013-03-20 10:45:00,
2013-03-20 06:55:00,21.7,19.5,29.79,WSW,256,4.0,7.0,91,0.00,,,0.00,Wunderground v.1.15,2013-03-20 10:55:00,
2013-03-20 07:00:00,22.0,20.0,29.78,WSW,257,4.0,4.0,92,0.00,,,0.00,Wunderground v.1.15,2013-03-20 11:00:00,
2013-03-20 07:05:00,22.2,20.0,29.78,SW,221,5.0,5.0,91,0.00,,,0.00,Wunderground v.1.15,2013-03-20 11:05:00,
2013-03-20 07:10:00,22.4,20.4,29.78,SW,235,5.0,5.0,92,0.00,,,0.00,Wunderground v.1.15,2013-03-20 11:10:00,
2013-03-20 07:15:00,22.4,20.2,29.78,WNW,294,4.0,5.0,91,0.00,,,0.00,Wunderground v.1.15,2013-03-20 11:15:00,
2013-03-20 07:20:00,22.5,20.3,29.78,WSW,239,4.0,7.0,91,0.00,,,0.00,Wunderground v.1.15,2013-03-20 11:20:00,
2013-03-20 07:25:00,22.7,20.5,29.79,WSW,252,5.0,7.0,91,0.00,,,0.00,Wunderground v.1.15,2013-03-20 11:25:00,
2013-03-20 07:30:00,22.7,20.5,29.78,West,269,5.0,5.0,91,0.00,,,0.00,Wunderground v.1.15,2013-03-20 11:30:00,
2013-03-20 07:35:00,23.1,20.9,29.79,WSW,241,5.0,9.0,91,0.00,,,0.00,Wunderground v.1.15,2013-03-20 11:35:00,
2013-03-20 07:40:00,23.3,21.1,29.78,WSW,249,5.0,9.0,91,0.00,,,0.00,Wunderground v.1.15,2013-03-20 11:40:00,
2013-03-20 07:45:00,23.4,21.2,29.78,WSW,246,5.0,9.0,91,0.00,,,0.00,Wunderground v.1.15,2013-03-20 11:45:00,
2013-03-20 07:50:00,23.6,21.1,29.79,West,277,5.0,7.0,90,0.00,,,0.00,Wunderground v.1.15,2013-03-20 11:50:00,
2013-03-20 07:55:00,23.6,21.1,29.78,SW,219,6.0,7.0,90,0.00,,,0.00,Wunderground v.1.15,2013-03-20 11:55:00,
2013-03-20 08:00:00,23.8,21.3,29.79,SW,236,5.0,6.0,90,0.00,,,0.00,Wunderground v.1.15,2013-03-20 12:00:00,
2013-03-20 08:05:00,23.8,21.3,29.78,WSW,254,6.0,10.0,90,0.00,,,0.00,Wunderground v.1.15,2013-03-20 12:05:00,
2013-03-20 08:10:00,23.8,21.0,29.78,WSW,246,7.0,7.0,89,0.00,,,0.00,Wunderground v.1.15,2013-03-20 12:10:00,
2013-03-20 08:15:00,23.9,21.4,29.78,WSW,254,7.0,15.0,90,0.00,,,0.00,Wunderground v.1.15,2013-03-20 12:15:00,
2013-03-20 08:20:00,24.0,21.2,29.78,WSW,245,8.0,8.0,89,0.00,,,0.00,Wunderground v.1.15,2013-03-20 12:20:00,
2013-03-20 08:25:00,24.1,21.3,29.79,WSW,250,8.0,8.0,89,0.00,,,0.00,Wunderground v.1.15,2013-03-20 12:25:00,
2013-03-20 08:30:00,24.3,21.3,29.79,WSW,244,8.0,8.0,88,0.00,,,0.00,Wunderground v.1.15,2013-03-20 12:30:00,
2013-03-20 08:35:00,24.4,21.4,29.79,SW,215,7.0,9.0,88,0.00,,,0.00,Wunderground v.1.15,2013-03-20 12:35:00,
2013-03-20 08:40:00,24.4,21.4,29.79,SW,226,8.0,8.0,88,0.00,,,0.00,Wunderground v.1.15,2013-03-20 12:40:00,
2013-03-20 08:50:00,24.7,21.4,29.79,WSW,257,9.0,12.0,87,0.00,,,0.00,Wunderground v.1.15,2013-03-20 12:50:00,
2013-03-20 08:55:00,24.7,21.4,29.78,WSW,247,9.0,12.0,87,0.00,,,0.00,Wunderground v.1.15,2013-03-20 12:55:00,
2013-03-20 09:00:00,24.8,21.5,29.78,SW,225,7.0,9.0,87,0.00,,,0.00,Wunderground v.1.15,2013-03-20 13:00:00,
2013-03-20 09:10:00,25.2,21.9,29.78,WSW,238,6.0,6.0,87,0.00,,,0.00,Wunderground v.1.15,2013-03-20 13:10:00,
2013-03-20 09:15:00,25.5,22.2,29.78,WSW,253,6.0,7.0,87,0.00,,,0.00,Wunderground v.1.15,2013-03-20 13:15:00,
2013-03-20 09:20:00,25.8,22.5,29.78,West,268,5.0,13.0,87,0.00,,,0.00,Wunderground v.1.15,2013-03-20 13:20:00,
2013-03-20 09:25:00,25.7,22.4,29.78,West,281,6.0,13.0,87,0.00,,,0.00,Wunderground v.1.15,2013-03-20 13:25:00,
2013-03-20 09:35:00,25.8,22.5,29.78,WSW,242,6.0,8.0,87,0.00,,,0.00,Wunderground v.1.15,2013-03-20 13:35:00,
2013-03-20 09:40:00,25.8,22.5,29.78,WSW,244,6.0,6.0,87,0.00,,,0.00,Wunderground v.1.15,2013-03-20 13:40:00,
2013-03-20 09:45:00,26.0,22.7,29.78,WSW,238,6.0,9.0,87,0.00,,,0.00,Wunderground v.1.15,2013-03-20 13:45:00,
2013-03-20 09:50:00,26.6,23.0,29.78,SW,236,6.0,9.0,86,0.00,,,0.00,Wunderground v.1.15,2013-03-20 13:50:00,
2013-03-20 09:55:00,27.0,22.8,29.78,WSW,248,7.0,9.0,84,0.00,,,0.00,Wunderground v.1.15,2013-03-20 13:55:00,
2013-03-20 10:00:00,27.3,22.8,29.78,WSW,251,8.0,8.0,83,0.00,,,0.00,Wunderground v.1.15,2013-03-20 14:00:00,
2013-03-20 10:10:00,27.9,23.1,29.78,WNW,282,8.0,8.0,82,0.00,,,0.00,Wunderground v.1.15,2013-03-20 14:10:00,
2013-03-20 10:15:00,28.2,22.5,29.77,WSW,249,8.0,8.0,79,0.00,,,0.00,Wunderground v.1.15,2013-03-20 14:15:00,
2013-03-20 10:25:00,28.3,21.4,29.78,WNW,284,9.0,12.0,75,0.00,,,0.00,Wunderground v.1.15,2013-03-20 14:25:00,
2013-03-20 10:30:00,28.3,20.4,29.78,SW,232,10.0,10.0,72,0.00,,,0.00,Wunderground v.1.15,2013-03-20 14:30:00,
2013-03-20 10:35:00,28.6,22.0,29.78,WSW,258,9.0,10.0,76,0.00,,,0.00,Wunderground v.1.15,2013-03-20 14:35:00,
2013-03-20 10:40:00,29.0,22.1,29.78,WNW,285,7.0,11.0,75,0.00,,,0.01,Wunderground v.1.15,2013-03-20 14:40:00,
2013-03-20 10:45:00,29.2,21.9,29.77,West,265,8.0,11.0,74,0.00,,,0.01,Wunderground v.1.15,2013-03-20 14:45:00,
2013-03-20 10:50:00,29.4,21.2,29.77,WNW,287,8.0,8.0,71,0.00,,,0.01,Wunderground v.1.15,2013-03-20 14:50:00,
2013-03-20 11:00:00,29.3,21.1,29.77,West,265,9.0,9.0,71,0.00,,,0.01,Wunderground v.1.15,2013-03-20 15:00:00,
2013-03-20 11:10:00,29.5,20.9,29.77,West,265,9.0,10.0,70,0.00,,,0.01,Wunderground v.1.15,2013-03-20 15:10:00,
2013-03-20 11:15:00,29.6,20.3,29.77,West,272,9.0,12.0,68,0.00,,,0.02,Wunderground v.1.15,2013-03-20 15:15:00,
2013-03-20 11:20:00,29.7,20.1,29.77,West,270,11.0,11.0,67,0.00,,,0.02,Wunderground v.1.15,2013-03-20 15:20:00,
2013-03-20 11:25:00,29.8,20.5,29.77,West,279,11.0,13.0,68,0.05,,,0.03,Wunderground v.1.15,2013-03-20 15:25:00,
2013-03-20 11:30:00,29.5,18.8,29.77,WSW,240,12.0,12.0,64,0.05,,,0.03,Wunderground v.1.15,2013-03-20 15:30:00,
2013-03-20 11:35:00,29.7,20.1,29.77,WSW,246,11.0,12.0,67,0.05,,,0.03,Wunderground v.1.15,2013-03-20 15:35:00,
2013-03-20 11:40:00,29.3,19.7,29.77,West,268,11.0,13.0,67,0.04,,,0.04,Wunderground v.1.15,2013-03-20 15:40:00,
2013-03-20 11:45:00,29.6,20.7,29.77,West,267,11.0,13.0,69,0.04,,,0.04,Wunderground v.1.15,2013-03-20 15:45:00,
2013-03-20 11:50:00,29.3,20.0,29.77,WNW,292,10.0,10.0,68,0.04,,,0.04,Wunderground v.1.15,2013-03-20 15:50:00,
2013-03-20 11:55:00,29.2,19.2,29.77,NW,308,11.0,11.0,66,0.00,,,0.04,Wunderground v.1.15,2013-03-20 15:55:00,
2013-03-20 12:00:00,29.4,18.7,29.77,WSW,254,12.0,13.0,64,0.00,,,0.05,Wunderground v.1.15,2013-03-20 16:00:00,
2013-03-20 12:05:00,29.3,18.6,29.77,WNW,302,11.0,20.0,64,0.00,,,0.05,Wunderground v.1.15,2013-03-20 16:05:00,
2013-03-20 12:10:00,29.4,19.1,29.77,WNW,299,11.0,19.0,65,0.00,,,0.05,Wunderground v.1.15,2013-03-20 16:10:00,
2013-03-20 12:15:00,29.4,19.1,29.77,WNW,290,10.0,19.0,65,0.00,,,0.05,Wunderground v.1.15,2013-03-20 16:15:00,
2013-03-20 12:20:00,29.9,18.5,29.77,WSW,254,9.0,11.0,62,0.00,,,0.05,Wunderground v.1.15,2013-03-20 16:20:00,
2013-03-20 12:25:00,30.2,17.2,29.77,West,269,10.0,18.0,58,0.00,,,0.06,Wunderground v.1.15,2013-03-20 16:25:00,
2013-03-20 12:35:00,30.2,16.8,29.78,WNW,285,11.0,12.0,57,0.00,,,0.06,Wunderground v.1.15,2013-03-20 16:35:00,
2013-03-20 12:45:00,29.9,17.3,29.78,West,268,8.0,10.0,59,0.00,,,0.06,Wunderground v.1.15,2013-03-20 16:45:00,
2013-03-20 12:50:00,30.2,16.4,29.78,WSW,249,9.0,9.0,56,0.00,,,0.06,Wunderground v.1.15,2013-03-20 16:50:00,
2013-03-20 12:55:00,30.7,17.7,29.77,NNW,331,9.0,9.0,58,0.00,,,0.06,Wunderground v.1.15,2013-03-20 16:55:00,
2013-03-20 13:00:00,30.8,17.3,29.77,West,263,7.0,8.0,57,0.00,,,0.06,Wunderground v.1.15,2013-03-20 17:00:00,
2013-03-20 13:10:00,31.0,21.3,29.77,WSW,246,10.0,12.0,67,0.00,,,0.07,Wunderground v.1.15,2013-03-20 17:10:00,
2013-03-20 13:15:00,30.8,20.4,29.77,West,279,9.0,12.0,65,0.00,,,0.07,Wunderground v.1.15,2013-03-20 17:15:00,
2013-03-20 13:20:00,30.9,20.1,29.77,WSW,237,9.0,9.0,64,0.00,,,0.07,Wunderground v.1.15,2013-03-20 17:20:00,
2013-03-20 13:30:00,30.5,16.7,29.77,West,270,11.0,12.0,56,0.00,,,0.07,Wunderground v.1.15,2013-03-20 17:30:00,
2013-03-20 13:40:00,30.5,15.8,29.77,West,281,14.0,16.0,54,0.00,,,0.08,Wunderground v.1.15,2013-03-20 17:40:00,
2013-03-20 13:45:00,30.3,15.2,29.77,West,279,16.0,16.0,53,0.00,,,0.08,Wunderground v.1.15,2013-03-20 17:45:00,
2013-03-20 13:50:00,31.4,16.2,29.77,West,273,15.0,16.0,53,0.00,,,0.08,Wunderground v.1.15,2013-03-20 17:50:00,
2013-03-20 13:55:00,31.6,16.0,29.77,WNW,303,12.0,16.0,52,0.00,,,0.09,Wunderground v.1.15,2013-03-20 17:55:00,
2013-03-20 14:00:00,31.1,15.5,29.77,West,263,11.0,15.0,52,0.00,,,0.09,Wunderground v.1.15,2013-03-20 18:00:00,
2013-03-20 14:05:00,31.0,15.4,29.77,NW,310,11.0,18.0,52,0.00,,,0.09,Wunderground v.1.15,2013-03-20 18:05:00,
2013-03-20 14:10:00,30.8,16.1,29.77,SW,225,13.0,13.0,54,0.00,,,0.09,Wunderground v.1.15,2013-03-20 18:10:00,
2013-03-20 14:15:00,31.0,15.8,29.78,NW,314,12.0,13.0,53,0.00,,,0.09,Wunderground v.1.15,2013-03-20 18:15:00,
2013-03-20 14:20:00,30.7,15.1,29.77,NW,306,12.0,12.0,52,0.00,,,0.10,Wunderground v.1.15,2013-03-20 18:20:00,
2013-03-20 14:30:00,30.9,16.6,29.78,SW,220,8.0,8.0,55,0.00,,,0.10,Wunderground v.1.15,2013-03-20 18:30:00,
2013-03-20 14:35:00,31.0,15.0,29.78,NNW,336,9.0,17.0,51,0.00,,,0.10,Wunderground v.1.15,2013-03-20 18:35:00,
2013-03-20 14:40:00,30.7,14.7,29.78,West,259,11.0,11.0,51,0.00,,,0.11,Wunderground v.1.15,2013-03-20 18:40:00,
2013-03-20 14:45:00,30.9,16.6,29.78,West,279,10.0,12.0,55,0.00,,,0.11,Wunderground v.1.15,2013-03-20 18:45:00,
2013-03-20 14:50:00,31.0,15.0,29.78,NW,317,10.0,12.0,51,0.00,,,0.11,Wunderground v.1.15,2013-03-20 18:50:00,
2013-03-20 14:55:00,31.3,16.1,29.77,NW,307,11.0,12.0,53,0.00,,,0.11,Wunderground v.1.15,2013-03-20 18:55:00,
2013-03-20 15:00:00,31.5,16.3,29.78,North,351,10.0,10.0,53,0.00,,,0.11,Wunderground v.1.15,2013-03-20 19:00:00,
2013-03-20 15:10:00,31.2,16.0,29.78,WSW,243,9.0,9.0,53,0.00,,,0.12,Wunderground v.1.15,2013-03-20 19:10:00,
2013-03-20 15:15:00,31.3,16.6,29.77,WNW,287,8.0,13.0,54,0.00,,,0.12,Wunderground v.1.15,2013-03-20 19:15:00,
2013-03-20 15:20:00,31.6,17.3,29.78,West,273,7.0,7.0,55,0.00,,,0.12,Wunderground v.1.15,2013-03-20 19:20:00,
2013-03-20 15:25:00,32.1,17.7,29.78,WNW,293,9.0,9.0,55,0.00,,,0.12,Wunderground v.1.15,2013-03-20 19:25:00,
2013-03-20 15:35:00,32.8,17.5,29.78,WNW,289,9.0,16.0,53,0.00,,,0.13,Wunderground v.1.15,2013-03-20 19:35:00,
2013-03-20 15:40:00,32.7,17.0,29.78,NW,304,12.0,12.0,52,0.00,,,0.13,Wunderground v.1.15,2013-03-20 19:40:00,
2013-03-20 15:45:00,33.0,17.7,29.77,WSW,238,12.0,13.0,53,0.00,,,0.13,Wunderground v.1.15,2013-03-20 19:45:00,
2013-03-20 15:50:00,33.8,17.6,29.78,WNW,298,10.0,19.0,51,0.00,,,0.14,Wunderground v.1.15,2013-03-20 19:50:00,
2013-03-20 15:55:00,33.3,17.5,29.78,NW,312,10.0,19.0,52,0.00,,,0.14,Wunderground v.1.15,2013-03-20 19:55:00,
2013-03-20 16:00:00,33.4,18.1,29.78,NW,306,10.0,10.0,53,0.05,,,0.15,Wunderground v.1.15,2013-03-20 20:00:00,
2013-03-20 16:05:00,32.5,17.7,29.78,WNW,288,9.0,10.0,54,0.05,,,0.15,Wunderground v.1.15,2013-03-20 20:05:00,
2013-03-20 16:10:00,31.8,17.9,29.78,SW,220,11.0,19.0,56,0.05,,,0.15,Wunderground v.1.15,2013-03-20 20:10:00,
2013-03-20 16:15:00,31.4,18.3,29.78,West,275,12.0,20.0,58,0.04,,,0.15,Wunderground v.1.15,2013-03-20 20:15:00,
2013-03-20 16:20:00,32.1,19.0,29.78,NW,317,11.0,11.0,58,0.00,,,0.15,Wunderground v.1.15,2013-03-20 20:20:00,
2013-03-20 16:25:00,32.3,18.8,29.78,WSW,250,8.0,11.0,57,0.00,,,0.15,Wunderground v.1.15,2013-03-20 20:25:00,
2013-03-20 16:30:00,32.1,18.6,29.78,SW,230,9.0,9.0,57,0.00,,,0.16,Wunderground v.1.15,2013-03-20 20:30:00,
2013-03-20 16:35:00,31.9,19.2,29.78,WSW,241,10.0,10.0,59,0.00,,,0.16,Wunderground v.1.15,2013-03-20 20:35:00,
2013-03-20 16:45:00,32.0,20.1,29.78,West,273,8.0,14.0,61,0.00,,,0.16,Wunderground v.1.15,2013-03-20 20:45:00,
2013-03-20 16:50:00,31.9,19.6,29.78,West,276,10.0,13.0,60,0.00,,,0.17,Wunderground v.1.15,2013-03-20 20:50:00,
2013-03-20 16:55:00,31.7,19.8,29.78,WNW,292,12.0,15.0,61,0.00,,,0.17,Wunderground v.1.15,2013-03-20 20:55:00,
2013-03-20 17:00:00,31.5,20.0,29.78,WSW,238,11.0,11.0,62,0.00,,,0.17,Wunderground v.1.15,2013-03-20 21:00:00,
2013-03-20 17:05:00,31.4,20.2,29.78,WSW,244,10.0,14.0,63,0.00,,,0.17,Wunderground v.1.15,2013-03-20 21:05:00,
2013-03-20 17:10:00,31.2,20.8,29.78,SW,231,10.0,12.0,65,0.00,,,0.17,Wunderground v.1.15,2013-03-20 21:10:00,
2013-03-20 17:15:00,31.1,21.1,29.79,SW,236,10.0,13.0,66,0.00,,,0.17,Wunderground v.1.15,2013-03-20 21:15:00,
2013-03-20 17:20:00,30.9,21.2,29.79,SW,234,10.0,10.0,67,0.00,,,0.17,Wunderground v.1.15,2013-03-20 21:20:00,
2013-03-20 17:30:00,30.7,21.7,29.79,West,273,8.0,8.0,69,0.00,,,0.17,Wunderground v.1.15,2013-03-20 21:30:00,
2013-03-20 17:35:00,30.6,22.0,29.79,West,259,10.0,10.0,70,0.00,,,0.17,Wunderground v.1.15,2013-03-20 21:35:00,
2013-03-20 17:40:00,30.7,22.1,29.79,West,266,11.0,11.0,70,0.00,,,0.17,Wunderground v.1.15,2013-03-20 21:40:00,
2013-03-20 17:45:00,30.7,22.4,29.79,WSW,247,10.0,11.0,71,0.00,,,0.18,Wunderground v.1.15,2013-03-20 21:45:00,
2013-03-20 17:50:00,30.6,22.6,29.79,SW,229,10.0,10.0,72,0.00,,,0.18,Wunderground v.1.15,2013-03-20 21:50:00,
2013-03-20 17:55:00,30.4,23.4,29.79,WSW,240,9.0,10.0,75,0.00,,,0.18,Wunderground v.1.15,2013-03-20 21:55:00,
2013-03-20 18:00:00,30.0,23.0,29.79,WSW,253,9.0,9.0,75,0.00,,,0.18,Wunderground v.1.15,2013-03-20 22:00:00,
2013-03-20 18:05:00,30.1,23.1,29.79,West,280,11.0,13.0,75,0.00,,,0.18,Wunderground v.1.15,2013-03-20 22:05:00,
2013-03-20 18:10:00,30.0,23.0,29.79,SW,219,11.0,12.0,75,0.00,,,0.18,Wunderground v.1.15,2013-03-20 22:10:00,
2013-03-20 18:15:00,29.9,23.3,29.80,WSW,241,11.0,12.0,76,0.00,,,0.18,Wunderground v.1.15,2013-03-20 22:15:00,
2013-03-20 18:20:00,29.9,23.3,29.80,NW,306,10.0,16.0,76,0.00,,,0.18,Wunderground v.1.15,2013-03-20 22:20:00,
2013-03-20 18:25:00,30.2,23.2,29.80,West,261,9.0,16.0,75,0.00,,,0.18,Wunderground v.1.15,2013-03-20 22:25:00,
2013-03-20 18:30:00,30.4,22.8,29.80,WSW,241,9.0,9.0,73,0.00,,,0.18,Wunderground v.1.15,2013-03-20 22:30:00,
2013-03-20 18:35:00,30.5,22.5,29.80,West,279,9.0,11.0,72,0.00,,,0.18,Wunderground v.1.15,2013-03-20 22:35:00,
2013-03-20 18:40:00,30.5,22.2,29.80,SSW,211,10.0,17.0,71,0.00,,,0.18,Wunderground v.1.15,2013-03-20 22:40:00,
2013-03-20 18:45:00,30.5,22.2,29.80,WSW,257,13.0,17.0,71,0.00,,,0.18,Wunderground v.1.15,2013-03-20 22:45:00,
2013-03-20 18:55:00,30.0,23.0,29.80,West,264,11.0,19.0,75,0.00,,,0.18,Wunderground v.1.15,2013-03-20 22:55:00,
2013-03-20 19:00:00,29.8,23.2,29.81,WSW,255,12.0,12.0,76,0.00,,,0.18,Wunderground v.1.15,2013-03-20 23:00:00,
2013-03-20 19:10:00,29.7,23.1,29.82,West,275,12.0,16.0,76,0.00,,,0.18,Wunderground v.1.15,2013-03-20 23:10:00,
2013-03-20 19:20:00,29.8,23.2,29.82,WSW,246,10.0,12.0,76,0.00,,,0.18,Wunderground v.1.15,2013-03-20 23:20:00,
2013-03-20 19:25:00,29.8,23.2,29.82,WSW,253,10.0,12.0,76,0.00,,,0.18,Wunderground v.1.15,2013-03-20 23:25:00,
2013-03-20 19:30:00,29.8,23.2,29.82,SW,231,9.0,11.0,76,0.00,,,0.18,Wunderground v.1.15,2013-03-20 23:30:00,
2013-03-20 19:35:00,29.8,22.8,29.82,WSW,250,9.0,11.0,75,0.00,,,0.18,Wunderground v.1.15,2013-03-20 23:35:00,
2013-03-20 19:40:00,29.9,22.6,29.83,West,281,11.0,17.0,74,0.00,,,0.18,Wunderground v.1.15,2013-03-20 23:40:00,
2013-03-20 19:45:00,30.0,22.4,29.82,West,275,12.0,24.0,73,0.00,,,0.18,Wunderground v.1.15,2013-03-20 23:45:00,
2013-03-20 19:50:00,29.9,22.3,29.82,WNW,290,13.0,15.0,73,0.00,,,0.18,Wunderground v.1.15,2013-03-20 23:50:00,
2013-03-20 19:55:00,29.9,22.3,29.83,WSW,238,13.0,15.0,73,0.00,,,0.18,Wunderground v.1.15,2013-03-20 23:55:00,
2013-03-20 20:00:00,29.9,22.3,29.84,WNW,285,14.0,19.0,73,0.00,,,0.18,Wunderground v.1.15,2013-03-21 00:00:00,
2013-03-20 20:05:00,29.7,22.1,29.83,West,277,12.0,19.0,73,0.00,,,0.18,Wunderground v.1.15,2013-03-21 00:05:00,
2013-03-20 20:10:00,29.6,22.3,29.84,WSW,238,10.0,16.0,74,0.00,,,0.18,Wunderground v.1.15,2013-03-21 00:10:00,
2013-03-20 20:15:00,29.6,22.3,29.84,SW,233,11.0,16.0,74,0.00,,,0.18,Wunderground v.1.15,2013-03-21 00:15:00,
2013-03-20 20:20:00,29.5,22.2,29.83,WNW,286,10.0,10.0,74,0.00,,,0.18,Wunderground v.1.15,2013-03-21 00:20:00,
2013-03-20 20:30:00,29.6,22.3,29.84,WSW,245,11.0,11.0,74,0.00,,,0.18,Wunderground v.1.15,2013-03-21 00:30:00,
2013-03-20 20:35:00,29.5,22.2,29.84,WNW,285,11.0,20.0,74,0.00,,,0.18,Wunderground v.1.15,2013-03-21 00:35:00,
2013-03-20 20:40:00,29.5,21.9,29.83,SW,227,11.0,17.0,73,0.00,,,0.18,Wunderground v.1.15,2013-03-21 00:40:00,
2013-03-20 20:45:00,29.5,21.9,29.84,West,281,12.0,20.0,73,0.00,,,0.18,Wunderground v.1.15,2013-03-21 00:45:00,
2013-03-20 20:50:00,29.4,21.8,29.84,SSW,206,12.0,15.0,73,0.00,,,0.18,Wunderground v.1.15,2013-03-21 00:50:00,
2013-03-20 20:55:00,29.3,21.7,29.84,West,271,12.0,15.0,73,0.00,,,0.18,Wunderground v.1.15,2013-03-21 00:55:00,
2013-03-20 21:00:00,29.3,21.7,29.84,SW,229,11.0,13.0,73,0.00,,,0.18,Wunderground v.1.15,2013-03-21 01:00:00,
2013-03-20 21:05:00,29.2,21.9,29.84,West,260,11.0,13.0,74,0.00,,,0.18,Wunderground v.1.15,2013-03-21 01:05:00,
2013-03-20 21:10:00,29.1,21.8,29.84,West,281,10.0,10.0,74,0.00,,,0.18,Wunderground v.1.15,2013-03-21 01:10:00,
2013-03-20 21:15:00,29.0,22.1,29.84,SSW,212,9.0,10.0,75,0.00,,,0.18,Wunderground v.1.15,2013-03-21 01:15:00,
2013-03-20 21:20:00,28.7,21.8,29.84,SW,221,8.0,10.0,75,0.00,,,0.18,Wunderground v.1.15,2013-03-21 01:20:00,
2013-03-20 21:25:00,28.8,21.9,29.84,WSW,241,8.0,10.0,75,0.00,,,0.18,Wunderground v.1.15,2013-03-21 01:25:00,
2013-03-20 21:30:00,28.7,21.5,29.84,SW,221,8.0,8.0,74,0.00,,,0.18,Wunderground v.1.15,2013-03-21 01:30:00,
2013-03-20 21:35:00,28.8,21.2,29.84,West,265,9.0,12.0,73,0.00,,,0.18,Wunderground v.1.15,2013-03-21 01:35:00,
2013-03-20 21:40:00,28.7,21.1,29.84,West,260,10.0,13.0,73,0.00,,,0.18,Wunderground v.1.15,2013-03-21 01:40:00,
2013-03-20 21:50:00,28.6,20.7,29.84,WSW,250,11.0,15.0,72,0.00,,,0.18,Wunderground v.1.15,2013-03-21 01:50:00,
2013-03-20 21:55:00,28.5,20.6,29.85,West,267,10.0,15.0,72,0.00,,,0.18,Wunderground v.1.15,2013-03-21 01:55:00,
2013-03-20 22:00:00,28.4,20.5,29.85,SW,225,9.0,11.0,72,0.00,,,0.18,Wunderground v.1.15,2013-03-21 02:00:00,
2013-03-20 22:05:00,28.4,20.5,29.85,WSW,251,10.0,13.0,72,0.00,,,0.18,Wunderground v.1.15,2013-03-21 02:05:00,
2013-03-20 22:10:00,28.2,20.3,29.85,SW,223,9.0,9.0,72,0.00,,,0.18,Wunderground v.1.15,2013-03-21 02:10:00,
2013-03-20 22:15:00,28.1,20.2,29.85,West,260,8.0,9.0,72,0.00,,,0.18,Wunderground v.1.15,2013-03-21 02:15:00,
2013-03-20 22:20:00,27.9,20.0,29.85,West,259,9.0,11.0,72,0.00,,,0.18,Wunderground v.1.15,2013-03-21 02:20:00,
2013-03-20 22:25:00,27.9,20.0,29.84,WSW,249,9.0,11.0,72,0.00,,,0.18,Wunderground v.1.15,2013-03-21 02:25:00,
2013-03-20 22:35:00,27.9,19.4,29.85,West,263,9.0,12.0,70,0.00,,,0.18,Wunderground v.1.15,2013-03-21 02:35:00,
2013-03-20 22:45:00,27.9,19.0,29.85,WSW,239,10.0,19.0,69,0.00,,,0.18,Wunderground v.1.15,2013-03-21 02:45:00,
2013-03-20 22:50:00,27.8,18.9,29.84,SW,225,11.0,11.0,69,0.00,,,0.18,Wunderground v.1.15,2013-03-21 02:50:00,
2013-03-20 22:55:00,27.6,19.1,29.85,WSW,242,10.0,11.0,70,0.00,,,0.18,Wunderground v.1.15,2013-03-21 02:55:00,
2013-03-20 23:00:00,27.5,19.0,29.85,West,271,9.0,12.0,70,0.00,,,0.18,Wunderground v.1.15,2013-03-21 03:00:00,
2013-03-20 23:05:00,27.6,19.1,29.85,WSW,244,9.0,12.0,70,0.00,,,0.18,Wunderground v.1.15,2013-03-21 03:05:00,
2013-03-20 23:10:00,27.5,19.0,29.85,West,261,9.0,12.0,70,0.00,,,0.18,Wunderground v.1.15,2013-03-21 03:10:00,
2013-03-20 23:15:00,27.5,18.7,29.85,WSW,244,10.0,13.0,69,0.00,,,0.18,Wunderground v.1.15,2013-03-21 03:15:00,
2013-03-20 23:20:00,27.4,18.6,29.85,SW,229,9.0,17.0,69,0.00,,,0.18,Wunderground v.1.15,2013-03-21 03:20:00,
2013-03-20 23:25:00,27.5,18.7,29.85,WSW,257,10.0,17.0,69,0.00,,,0.18,Wunderground v.1.15,2013-03-21 03:25:00,
2013-03-20 23:30:00,27.4,18.6,29.86,West,262,10.0,10.0,69,0.00,,,0.18,Wunderground v.1.15,2013-03-21 03:30:00,
2013-03-20 23:35:00,27.6,18.1,29.86,WSW,242,10.0,10.0,67,0.00,,,0.18,Wunderground v.1.15,2013-03-21 03:35:00,
2013-03-20 23:45:00,27.2,17.7,29.86,WSW,250,7.0,11.0,67,0.00,,,0.18,Wunderground v.1.15,2013-03-21 03:45:00,
2013-03-20 23:50:00,27.2,17.7,29.86,West,271,7.0,7.0,67,0.00,,,0.18,Wunderground v.1.15,2013-03-21 03:50:00,
2013-03-20 23:55:00,27.1,17.9,29.86,WSW,244,7.0,7.0,68,0.00,,,0.18,Wunderground v.1.15,2013-03-21 03:55:00,